Stations météo

Publicité
Rodez, France (7552): Température de l'air & dewpoint: 13.04.2019 04:00:00 - 19.04.2019 04:00:00 (CEST)Rodez, France (7552): Température de l'air 5cm: 13.04.2019 04:00:00 - 19.04.2019 04:00:00 (CEST)Rodez, France (7552): Vitesse du vent & gusts: 13.04.2019 04:00:00 - 19.04.2019 04:00:00 (CEST)Rodez, France (7552): Direction du vent: 13.04.2019 04:00:00 - 19.04.2019 04:00:00 (CEST)Rodez, France (7552): reduced air pressure: 13.04.2019 04:00:00 - 19.04.2019 04:00:00 (CEST)Rodez, France (7552): visibility: 13.04.2019 04:00:00 - 19.04.2019 04:00:00 (CEST)Rodez, France (7552): Ensoleillement: 13.04.2019 04:00:00 - 19.04.2019 04:00:00 (CEST)Rodez, France (7552): Quantités de précipitations: 13.04.2019 04:00:00 - 19.04.2019 04:00:00 (CEST)
Date & Time tt [°C] td [°C] tt 5cm [°C] ff [km/h] ff [knt] fx [km/h] fx [knt] dd ppp [hPa] vv [km] sd [min] rr [mm]
19.04.2019 04:00:00 14,5 1,0 12,2 33 18 56 30 ESE 1019,5 56 0 0,0
19.04.2019 03:00:00 13,6 0,2 11,7 31 17 53 28 ESE 1019,5 58 0 0,0
19.04.2019 02:00:00 13,2 0,2 12,1 30 16 56 30 ESE 1019,6 55 0 0,0
19.04.2019 01:00:00 13,6 -0,1 11,9 37 20 62 33 ESE 1019,5 56 0 0,0
19.04.2019 00:00:00 13,5 -0,6 11,6 25 14 52 28 E 1019,7 56 0 0,0
18.04.2019 23:00:00 13,1 0,1 11,7 21 11 50 27 ESE 1020,0 59 0 0,0
18.04.2019 22:00:00 14,0 -2,0 12,6 28 15 54 29 ESE 1019,6 60 0 0,0
18.04.2019 21:00:00 14,2 0,4 13,0 22 12 45 25 ESE 1019,1 60 15 0,0
18.04.2019 20:00:00 15,1 3,2 14,7 27 15 63 34 ESE 1018,2 47 36 0,0
18.04.2019 19:00:00 16,2 2,9 16,5 35 19 61 33 ESE 1017,5 44 33 0,0
18.04.2019 18:00:00 17,4 3,3 18,2 39 21 59 32 SE 1016,8 39 38 0,0
18.04.2019 17:00:00 17,7 3,9 19,0 36 19 55 30 SE 1016,8 28 42 0,0
18.04.2019 16:00:00 17,7 4,3 20,6 38 20 72 39 SE 1017,2 28 60 0,0
18.04.2019 15:00:00 17,2 3,5 19,7 43 23 73 40 ESE 1017,3 28 60 0,0
18.04.2019 14:00:00 17,6 4,2 19,5 44 24 72 39 ESE 1016,9 27 60 0,0
18.04.2019 13:00:00 16,8 4,5 19,8 44 24 66 36 SE 1016,8 32 60 0,0
18.04.2019 12:00:00 16,4 3,4 17,6 43 23 63 34 ESE 1016,7 38 60 0,0
18.04.2019 11:00:00 15,1 2,6 16,0 38 21 61 33 ESE 1016,4 48 60 0,0
18.04.2019 10:00:00 13,4 3,5 12,9 30 16 61 33 ESE 1016,6 58 57 0,0
18.04.2019 09:00:00 11,6 3,9 10,0 33 18 58 31 ESE 1017,0 60 48 0,0
18.04.2019 08:00:00 10,2 3,7 8,4 27 15 48 26 ESE 1016,9 54 28 0,0
18.04.2019 07:00:00 9,6 4,6 8,3 22 12 42 23 ESE 1016,5 60 0 0,0
18.04.2019 06:00:00 9,5 4,9 8,4 26 14 41 22 ESE 1016,4 60 0 0,0
18.04.2019 05:00:00 9,4 5,2 8,4 23 13 45 24 ESE 1016,7 60 0 0,0
18.04.2019 04:00:00 9,8 5,2 8,9 29 16 49 26 ESE 1016,4 60 0 0,0
18.04.2019 03:00:00 9,9 5,1 8,8 27 15 50 27 ESE 1016,5 60 0 0,0
18.04.2019 02:00:00 9,8 5,2 9,0 31 17 52 28 ESE 1017,0 60 0 0,0
18.04.2019 01:00:00 10,4 4,5 9,5 31 17 52 28 ESE 1017,2 60 0 0,0
18.04.2019 00:00:00 11,0 3,3 10,0 27 15 44 24 ESE 1017,1 60 0 0,0
17.04.2019 23:00:00 11,2 3,2 9,8 27 14 40 22 ESE 1017,0 60 0 0,0
17.04.2019 22:00:00 11,1 3,9 10,2 23 13 41 22 ESE 1017,1 60 0 0,0
17.04.2019 21:00:00 11,9 3,9 11,1 27 15 43 23 ESE 1016,5 60 0 0,0
17.04.2019 20:00:00 12,9 4,3 12,2 19 11 48 26 ESE 1016,0 60 0 0,0
17.04.2019 19:00:00 14,1 4,4 14,1 31 17 48 26 ESE 1015,5 52 0 0,0
17.04.2019 18:00:00 14,7 5,7 15,5 28 15 47 26 SE 1015,4 52 0 0,0
17.04.2019 17:00:00 15,2 5,7 16,5 37 20 55 30 SE 1015,5 39 22 0,0
17.04.2019 16:00:00 16,1 6,5 17,7 38 20 63 34 SE 1015,1 23 41 0,0
17.04.2019 15:00:00 15,9 6,0 18,8 31 17 60 33 SE 1015,7 23 54 0,0
17.04.2019 14:00:00 16,3 6,7 19,8 30 16 51 28 ESE 1015,8 24 60 0,0
17.04.2019 13:00:00 15,4 6,9 19,8 32 18 48 26 SE 1016,2 21 60 0,0
17.04.2019 12:00:00 15,0 6,3 17,7 33 18 53 28 SE 1016,2 20 60 0,0
17.04.2019 11:00:00 13,9 6,0 14,8 34 18 47 25 ESE 1016,7 25 60 0,0
17.04.2019 10:00:00 12,2 5,6 11,9 25 13 39 21 ESE 1016,9 27 60 0,0
17.04.2019 09:00:00 9,7 5,5 6,4 21 11 31 17 E 1017,4 30 40 0,0
17.04.2019 08:00:00 6,8 4,5 5,2 15 8 24 13 E 1018,4 45 0 0,0
17.04.2019 07:00:00 6,9 4,6 4,5 14 7 23 13 E 1018,5 60 0 0,0
17.04.2019 06:00:00 5,9 4,7 2,8 16 9 22 12 E 1018,9 50 0 0,0
17.04.2019 05:00:00 4,8 4,5 0,9 13 7 19 10 E 1019,6 22 0 0,0
17.04.2019 04:00:00 5,1 4,4 3,4 10 5 16 9 ESE 1020,4 22 0 0,0
17.04.2019 03:00:00 5,9 4,5 1,7 10 5 23 12 ESE 1020,9 36 0 0,0
17.04.2019 02:00:00 4,9 3,6 0,8 14 8 19 10 SE 1021,6 58 0 0,0
17.04.2019 01:00:00 5,7 4,3 -1,8 10 5 15 8 SE 1021,5 37 0 0,0
17.04.2019 00:00:00 4,3 3,9 -1,5 4 2 9 5 SSE 1022,1 26 0 0,0
16.04.2019 23:00:00 5,1 4,2 -0,5 5 3 8 5 ESE 1021,8 54 0 0,0
16.04.2019 22:00:00 6,8 5,1 0,0 3 1 4 2 SE 1021,6 60 0 0,0
16.04.2019 21:00:00 10,6 6,0 3,7 4 2 6 4 N 1020,1 60 13 0,0
16.04.2019 20:00:00 12,2 6,7 11,8 8 4 11 6 NNW 1019,3 54 48 0,0
16.04.2019 19:00:00 13,7 6,5 15,0 4 2 17 9 WNW 1019,0 48 51 0,0
16.04.2019 18:00:00 12,8 7,2 13,6 3 2 13 7 WNW 1019,3 58 7 0,0
16.04.2019 17:00:00 12,5 6,5 15,1 7 4 23 12 W 1019,4 58 1 0,0
16.04.2019 16:00:00 12,3 7,0 14,9 14 8 25 14 WSW 1019,8 52 5 0,0
16.04.2019 15:00:00 11,9 6,4 13,0 14 7 22 12 W 1020,0 49 13 0,0
16.04.2019 14:00:00 10,7 7,2 10,7 16 9 27 15 W 1020,2 56 0 0,0
16.04.2019 13:00:00 9,6 8,2 9,4 16 9 23 12 WSW 1020,6 44 0 0,0
16.04.2019 12:00:00 9,3 8,7 8,7 13 7 23 12 WSW 1020,3 40 0 0,0
16.04.2019 11:00:00 8,0 7,9 8,0 12 6 21 11 SW 1020,5 3,0 0 0,2
16.04.2019 10:00:00 7,3 7,0 7,1 8 5 16 8 S 1020,1 3,5 0 0,4
16.04.2019 09:00:00 6,8 6,7 6,5 8 4 14 8 SE 1019,7 1,8 0 0,6
16.04.2019 08:00:00 6,5 6,1 6,2 6 3 11 6 E 1019,2 5 0 0,4
16.04.2019 07:00:00 6,7 5,5 6,1 3 2 19 10 E 1018,6 4,2 0 0,0
16.04.2019 06:00:00 7,1 5,7 6,5 12 7 24 13 SE 1018,2 35 0 0,2
16.04.2019 05:00:00 7,1 6,2 6,6 6 4 21 11 SSE 1018,1 17 0 0,2
16.04.2019 04:00:00 7,3 6,4 6,6 13 7 23 12 SE 1017,7 7 0 1,6
16.04.2019 03:00:00 7,6 5,9 6,6 13 7 29 15 SE 1017,8 18 0 0,4
16.04.2019 02:00:00 8,3 5,4 7,0 19 10 26 14 SE 1018,2 16 0 0,0
16.04.2019 01:00:00 8,8 2,8 7,5 12 6 18 10 ESE 1018,4 51 0 0,0
16.04.2019 00:00:00 9,4 1,3 8,3 9 5 47 26 SSW 1018,0 60 0 0,0
15.04.2019 23:00:00 10,3 1,6 10,0 33 18 55 30 ESE 1014,3 60 0 0,0
15.04.2019 22:00:00 10,4 2,0 10,1 35 19 62 34 ESE 1014,1 60 0 0,0
15.04.2019 21:00:00 10,8 0,5 10,3 34 18 57 31 ESE 1013,5 60 0 0,0
15.04.2019 20:00:00 11,5 -1,0 11,2 35 19 56 30 ESE 1013,2 60 0 0,0
15.04.2019 19:00:00 11,7 -1,1 11,7 33 18 68 37 ESE 1013,3 52 0 0,0
15.04.2019 18:00:00 12,6 -3,3 12,9 35 19 61 33 SE 1013,3 34 0 0,0
15.04.2019 17:00:00 13,5 -2,1 14,4 36 19 60 33 SE 1012,5 60 0 0,0
15.04.2019 16:00:00 15,4 -0,8 16,4 35 19 54 29 ESE 1012,5 43 18 0,0
15.04.2019 15:00:00 16,7 -2,9 21,0 35 19 50 27 SE 1012,4 33 60 0,0
15.04.2019 14:00:00 16,9 -6,9 20,0 24 13 37 20 ESE 1012,7 54 43 0,0
15.04.2019 13:00:00 16,5 -7,2 21,4 16 9 29 16 SE 1013,3 60 60 0,0
15.04.2019 12:00:00 14,9 -6,7 19,6 13 7 25 14 E 1014,4 60 60 0,0
15.04.2019 11:00:00 12,5 -6,5 14,6 12 7 19 10 E 1015,5 53 60 0,0
15.04.2019 10:00:00 9,5 -8,1 10,4 14 8 22 12 E 1016,2 53 60 0,0
15.04.2019 09:00:00 5,8 -5,8 2,8 13 7 18 10 E 1017,6 20 43 0,0
15.04.2019 08:00:00 2,4 -5,3 -3,7 11 6 14 8 ESE 1019,1 24 8 0,0
15.04.2019 07:00:00 -0,5 -5,1 -5,0 7 4 9 5 ESE 1019,7 28 0 0,0
15.04.2019 06:00:00 -0,2 -4,8 -5,2 5 3 10 5 E 1020,1 29 0 0,0
15.04.2019 05:00:00 -0,1 -4,7 -5,3 6 3 10 5 ESE 1020,4 28 0 0,0
15.04.2019 04:00:00 0,7 -5,5 -3,6 6 3 10 5 SE 1020,6 33 0 0,0
15.04.2019 03:00:00 2,7 -5,5 0,5 8 4 14 8 E 1020,3 36 0 0,0
15.04.2019 02:00:00 3,3 -5,6 -2,5 9 5 13 7 ENE 1020,6 40 0 0,0
15.04.2019 01:00:00 4,0 -5,8 -2,1 4 2 8 5 E 1020,3 42 0 0,0
15.04.2019 00:00:00 4,6 -6,0 1,7 9 5 17 9 ENE 1020,1 44 0 0,0
14.04.2019 23:00:00 6,3 -5,7 3,0 9 5 18 10 N 1019,4 48 0 0,0
14.04.2019 22:00:00 7,5 -5,9 0,2 11 6 14 8 NW 1018,5 60 0 0,0
14.04.2019 21:00:00 8,1 -6,5 3,0 9 5 19 10 WNW 1017,5 60 10 0,0
14.04.2019 20:00:00 9,9 -3,8 10,0 14 7 27 15 W 1016,4 53 60 0,0
14.04.2019 19:00:00 12,4 -6,6 14,7 22 12 34 18 WNW 1015,5 30 60 0,0
14.04.2019 18:00:00 13,2 -4,9 16,9 21 11 38 21 WNW 1015,2 31 60 0,0
14.04.2019 17:00:00 13,3 -5,8 16,3 22 12 42 23 W 1015,1 31 60 0,0
14.04.2019 16:00:00 12,9 -2,2 16,6 20 11 32 18 W 1015,4 36 56 0,0
14.04.2019 15:00:00 11,7 -4,1 17,8 16 9 29 16 NNW 1015,6 40 60 0,0
14.04.2019 14:00:00 10,6 -2,5 14,2 14 7 31 17 WNW 1016,2 44 48 0,0
14.04.2019 13:00:00 8,9 -3,7 13,7 14 8 22 12 WNW 1016,5 53 40 0,0
14.04.2019 12:00:00 7,9 -3,9 13,3 10 5 19 10 NW 1016,9 20 47 0,0
14.04.2019 11:00:00 6,9 -2,8 9,4 7 4 14 8 NNE 1016,9 14 51 0,0
14.04.2019 10:00:00 4,9 -2,0 5,4 3 2 11 6 NNE 1017,4 16 0 0,0
14.04.2019 09:00:00 3,7 -2,7 3,1 6 4 11 6 NE 1017,5 15 0 0,0
14.04.2019 08:00:00 2,9 -2,2 2,1 6 3 13 7 NE 1017,4 14 0 0,0
14.04.2019 07:00:00 2,8 -2,9 2,1 9 5 13 7 NE 1016,9 15 0 0,0
14.04.2019 06:00:00 3,3 -3,1 1,8 4 2 11 6 NNE 1017,1 15 0 0,0
14.04.2019 05:00:00 3,7 -2,7 0,1 3 2 6 3 NNE 1017,4 15 0 0,0
14.04.2019 04:00:00 4,0 -2,4 -0,3 0 0 9 5 N 1017,2 20 0 0,0
14.04.2019 03:00:00 3,3 -2,0 -0,4 5 3 8 4 NNE 1017,3 18 0 0,0
14.04.2019 02:00:00 2,6 -2,1 -2,5 2 1 9 5 N 1018,1 23 0 0,0
14.04.2019 01:00:00 2,7 -3,0 -2,9 2 1 16 9 E 1018,3 26 0 0,0
14.04.2019 00:00:00 5,5 -2,1 -0,1 12 7 17 9 NW 1017,9 30 0 0,0
13.04.2019 23:00:00 6,6 -3,4 -0,4 9 5 16 9 NW 1018,0 37 0 0,0
13.04.2019 22:00:00 7,4 -4,4 1,2 10 6 22 12 NW 1018,0 47 0 0,0
13.04.2019 21:00:00 7,7 -3,8 5,7 16 9 26 14 WNW 1017,6 48 8 0,0
13.04.2019 20:00:00 10,3 -4,1 10,1 19 10 36 19 WNW 1016,7 43 60 0,0
13.04.2019 19:00:00 12,9 -3,4 15,2 21 11 39 21 WNW 1016,1 18 60 0,0
13.04.2019 18:00:00 13,7 -0,7 16,8 26 14 42 23 WNW 1016,0 15 60 0,0
13.04.2019 17:00:00 13,6 -1,6 17,7 29 16 40 22 WNW 1016,0 12 60 0,0
13.04.2019 16:00:00 13,7 0,0 18,5 23 13 35 19 W 1016,3 11 60 0,0
13.04.2019 15:00:00 13,6 0,6 17,4 21 11 37 20 W 1017,0 9 60 0,0
13.04.2019 14:00:00 11,3 0,1 17,3 16 9 37 20 WNW 1017,9 8 60 0,0
13.04.2019 13:00:00 10,1 -0,1 16,3 13 7 28 15 WNW 1018,8 8 60 0,0
13.04.2019 12:00:00 8,9 0,1 15,0 10 6 22 12 W 1019,4 11 60 0,0
13.04.2019 11:00:00 7,4 -0,8 12,5 10 5 22 12 WNW 1019,9 9 60 0,0
13.04.2019 10:00:00 6,2 -1,0 8,3 12 6 19 10 NW 1020,1 7 60 0,0
13.04.2019 09:00:00 4,3 -1,3 0,4 10 6 16 9 NW 1020,4 12 40 0,0
13.04.2019 08:00:00 1,2 -2,0 -4,7 9 5 12 7 NW 1021,0 11 1 0,0
13.04.2019 07:00:00 1,0 -2,6 -5,5 5 3 13 7 W 1020,5 10 0 0,0
13.04.2019 06:00:00 -0,6 -3,5 -5,5 4 2 9 5 WNW 1020,6 11 0 0,0
13.04.2019 05:00:00 3,1 -2,4 -1,6 5 3 12 6 NW 1019,6 12 0 0,0
13.04.2019 04:00:00 3,9 -2,3 -0,9 7 4 14 7 N 1019,7 14 0 0,0

tt = Température de l'air
td = dewpoint
tt 5cm = Température de l'air 5cm
ff = Vitesse du vent
fx = gusts
dd = Direction du vent
ppp = reduced air pressure
vv = visibility
sd = Ensoleillement
rr = Quantités de précipitations

stations d'obs. à proximité